| time (UTC) | temp F | wind direction | speed MPH | gust MPH | rain 1hr in | rain 24hr in | rain mn in | humidity % | barometer mb |
| 20260510174030 | 58 | 317 | 5.0 | 13.0 | 0.00 | 0.12 | 0.02 | 46 | 1014.9 |
| 20260510173536 | 58 | 310 | 6.0 | 15.0 | 0.00 | 0.12 | 0.02 | 47 | 1014.9 |
| 20260510173029 | 58 | 228 | 5.0 | 12.0 | 0.00 | 0.12 | 0.02 | 50 | 1014.9 |
| 20260510172517 | 59 | 307 | 6.0 | 11.0 | 0.00 | 0.12 | 0.02 | 48 | 1014.8 |
| 20260510172028 | 59 | 258 | 6.0 | 16.0 | 0.00 | 0.12 | 0.02 | 49 | 1014.9 |
| 20260510171552 | 59 | 336 | 6.0 | 16.0 | 0.00 | 0.12 | 0.02 | 50 | 1014.9 |
| 20260510171021 | 58 | 262 | 4.0 | 17.0 | 0.00 | 0.12 | 0.02 | 51 | 1014.7 |
| 20260510170554 | 58 | 259 | 6.0 | 17.0 | 0.00 | 0.12 | 0.02 | 48 | 1014.8 |
| 20260510170042 | 58 | 233 | 6.0 | 13.0 | 0.00 | 0.12 | 0.02 | 50 | 1014.8 |
| 20260510165527 | 58 | 280 | 4.0 | 15.0 | 0.00 | 0.12 | 0.02 | 50 | 1014.6 |
| 20260510165019 | 58 | 306 | 3.0 | 14.0 | 0.00 | 0.12 | 0.02 | 48 | 1014.7 |
| 20260510164604 | 58 | 312 | 7.0 | 14.0 | 0.00 | 0.12 | 0.02 | 51 | 1014.5 |
| 20260510164037 | 58 | 255 | 4.0 | 13.0 | 0.00 | 0.12 | 0.02 | 50 | 1014.6 |
| 20260510163533 | 58 | 288 | 4.0 | 12.0 | 0.00 | 0.12 | 0.02 | 52 | 1014.6 |
| 20260510163029 | 58 | 280 | 5.0 | 12.0 | 0.00 | 0.12 | 0.02 | 51 | 1014.5 |
| 20260510162518 | 58 | 319 | 5.0 | 14.0 | 0.00 | 0.12 | 0.02 | 48 | 1014.6 |
| 20260510162042 | 58 | 229 | 8.0 | 15.0 | 0.00 | 0.12 | 0.02 | 48 | 1014.5 |
| 20260510161521 | 58 | 263 | 6.0 | 15.0 | 0.00 | 0.12 | 0.02 | 50 | 1014.5 |
| 20260510161037 | 58 | 178 | 6.0 | 15.0 | 0.00 | 0.12 | 0.02 | 49 | 1014.5 |
| 20260510160527 | 58 | 262 | 4.0 | 15.0 | 0.00 | 0.12 | 0.02 | 49 | 1014.5 |
| 20260510160017 | 58 | 300 | 5.0 | 10.0 | 0.00 | 0.12 | 0.02 | 53 | 1014.4 |
| 20260510155532 | 58 | 257 | 3.0 | 9.0 | 0.00 | 0.12 | 0.02 | 52 | 1014.5 |
| 20260510155027 | 58 | 273 | 4.0 | 10.0 | 0.00 | 0.12 | 0.02 | 55 | 1014.4 |
| 20260510154535 | 57 | 306 | 4.0 | 10.0 | 0.00 | 0.12 | 0.02 | 54 | 1014.4 |
| 20260510154022 | 57 | 296 | 3.0 | 10.0 | 0.00 | 0.12 | 0.02 | 54 | 1014.4 |
| 20260510153517 | 57 | 333 | 5.0 | 11.0 | 0.00 | 0.12 | 0.02 | 54 | 1014.4 |
| 20260510153033 | 57 | 288 | 3.0 | 11.0 | 0.00 | 0.12 | 0.02 | 52 | 1014.4 |
| 20260510152539 | 58 | 296 | 4.0 | 10.0 | 0.00 | 0.12 | 0.02 | 55 | 1014.3 |
| 20260510152018 | 57 | 355 | 3.0 | 11.0 | 0.00 | 0.12 | 0.02 | 54 | 1014.3 |
| 20260510151557 | 57 | 269 | 5.0 | 11.0 | 0.00 | 0.12 | 0.02 | 55 | 1014.2 |
| 20260510151030 | 56 | 257 | 4.0 | 9.0 | 0.00 | 0.12 | 0.02 | 56 | 1014.2 |
| 20260510150534 | 56 | 331 | 4.0 | 7.0 | 0.00 | 0.12 | 0.02 | 56 | 1014.1 |
| 20260510150032 | 56 | 292 | 3.0 | 10.0 | 0.00 | 0.12 | 0.02 | 57 | 1014.1 |
| 20260510145544 | 56 | 259 | 4.0 | 10.0 | 0.00 | 0.12 | 0.02 | 59 | 1014.0 |
| 20260510145018 | 56 | 284 | 3.0 | 9.0 | 0.00 | 0.12 | 0.02 | 55 | 1013.9 |
| 20260510144545 | 56 | 289 | 4.0 | 10.0 | 0.00 | 0.12 | 0.02 | 54 | 1014.0 |
| 20260510144025 | 55 | 292 | 2.0 | 10.0 | 0.00 | 0.12 | 0.02 | 59 | 1013.9 |
| 20260510143538 | 55 | 301 | 3.0 | 8.0 | 0.00 | 0.12 | 0.02 | 60 | 1013.8 |
| 20260510143037 | 55 | 284 | 2.0 | 6.0 | 0.00 | 0.12 | 0.02 | 59 | 1013.8 |
| 20260510142541 | 54 | 261 | 3.0 | 8.0 | 0.00 | 0.12 | 0.02 | 60 | 1013.8 |
| 20260510142015 | 54 | 327 | 4.0 | 10.0 | 0.00 | 0.12 | 0.02 | 58 | 1013.7 |
| 20260510141516 | 54 | 275 | 3.0 | 8.0 | 0.00 | 0.12 | 0.02 | 58 | 1013.5 |
| 20260510141025 | 53 | 314 | 4.0 | 8.0 | 0.00 | 0.12 | 0.02 | 62 | 1013.4 |
| 20260510140547 | 53 | 282 | 1.0 | 5.0 | 0.00 | 0.12 | 0.02 | 65 | 1013.4 |
| 20260510140023 | 52 | 263 | 2.0 | 5.0 | 0.00 | 0.12 | 0.02 | 65 | 1013.3 |
| 20260510135519 | 53 | 267 | 1.0 | 5.0 | 0.00 | 0.12 | 0.02 | 67 | 1013.3 |
| 20260510135022 | 53 | 289 | 2.0 | 5.0 | 0.00 | 0.12 | 0.02 | 66 | 1013.2 |
| 20260510134550 | 53 | 269 | 2.0 | 8.0 | 0.00 | 0.12 | 0.02 | 66 | 1013.2 |
| 20260510134025 | 53 | 239 | 4.0 | 8.0 | 0.00 | 0.12 | 0.02 | 66 | 1013.2 |
| 20260510133517 | 53 | 284 | 4.0 | 9.0 | 0.00 | 0.12 | 0.02 | 64 | 1013.1 |
| 20260510133029 | 53 | 256 | 3.0 | 9.0 | 0.00 | 0.12 | 0.02 | 64 | 1013.0 |
| 20260510132536 | 53 | 275 | 3.0 | 8.0 | 0.00 | 0.12 | 0.02 | 67 | 1013.0 |
| 20260510132031 | 53 | 240 | 3.0 | 7.0 | 0.00 | 0.12 | 0.02 | 67 | 1013.0 |
| 20260510131540 | 53 | 220 | 1.0 | 6.0 | 0.00 | 0.12 | 0.02 | 74 | 1013.0 |
| 20260510131106 | 52 | 269 | 3.0 | 5.0 | 0.00 | 0.12 | 0.02 | 72 | 1013.0 |
| 20260510130521 | 51 | 210 | 1.0 | 4.0 | 0.00 | 0.12 | 0.02 | 75 | 1013.0 |
| 20260510130050 | 51 | 265 | 1.0 | 3.0 | 0.00 | 0.12 | 0.02 | 75 | 1013.0 |
| 20260510125522 | 51 | 291 | 0.0 | 6.0 | 0.00 | 0.12 | 0.02 | 76 | 1013.0 |
| 20260510125042 | 51 | 262 | 1.0 | 6.0 | 0.00 | 0.12 | 0.02 | 75 | 1013.0 |
| 20260510124519 | 51 | 261 | 2.0 | 4.0 | 0.00 | 0.12 | 0.02 | 76 | 1012.9 |
| 20260510124047 | 50 | 271 | 2.0 | 5.0 | 0.00 | 0.12 | 0.02 | 77 | 1012.9 |
| 20260510123541 | 50 | 272 | 1.0 | 5.0 | 0.00 | 0.12 | 0.02 | 76 | 1012.8 |
| 20260510123040 | 50 | 275 | 1.0 | 7.0 | 0.00 | 0.12 | 0.02 | 77 | 1012.8 |
| 20260510122516 | 50 | 265 | 3.0 | 5.0 | 0.00 | 0.12 | 0.02 | 77 | 1012.8 |
| 20260510122041 | 50 | 257 | 0.0 | 6.0 | 0.00 | 0.12 | 0.02 | 78 | 1012.8 |
| 20260510121515 | 50 | 262 | 3.0 | 6.0 | 0.00 | 0.12 | 0.02 | 79 | 1012.8 |
| 20260510121043 | 49 | 269 | 0.0 | 3.0 | 0.01 | 0.12 | 0.02 | 80 | 1012.7 |
| 20260510120536 | 49 | 284 | 1.0 | 3.0 | 0.01 | 0.12 | 0.02 | 80 | 1012.6 |
| 20260510120029 | 49 | 255 | 0.0 | 6.0 | 0.01 | 0.12 | 0.02 | 80 | 1012.6 |
| 20260510115517 | 49 | 270 | 2.0 | 8.0 | 0.01 | 0.12 | 0.02 | 80 | 1012.6 |
| 20260510115039 | 48 | 281 | 1.0 | 4.0 | 0.01 | 0.12 | 0.02 | 81 | 1012.5 |
| 20260510114517 | 48 | 272 | 1.0 | 4.0 | 0.01 | 0.12 | 0.02 | 81 | 1012.4 |
| 20260510114038 | 48 | 235 | 0.0 | 4.0 | 0.01 | 0.12 | 0.02 | 83 | 1012.2 |
| 20260510113527 | 48 | 271 | 1.0 | 4.0 | 0.01 | 0.12 | 0.02 | 83 | 1012.3 |
| 20260510113031 | 48 | 252 | 0.0 | 3.0 | 0.01 | 0.12 | 0.02 | 84 | 1012.2 |
| 20260510112517 | 48 | 238 | 0.0 | 3.0 | 0.01 | 0.12 | 0.02 | 84 | 1012.2 |
| 20260510112038 | 48 | 238 | 1.0 | 3.0 | 0.01 | 0.12 | 0.02 | 84 | 1012.0 |
| 20260510111524 | 48 | 224 | 0.0 | 0.0 | 0.01 | 0.12 | 0.02 | 84 | 1011.8 |
| 20260510111021 | 48 | 264 | 0.0 | 0.0 | 0.00 | 0.11 | 0.01 | 84 | 1011.7 |
| 20260510110520 | 48 | 263 | 0.0 | 0.0 | 0.00 | 0.11 | 0.01 | 83 | 1011.4 |
| 20260510110024 | 48 | 263 | 0.0 | 0.0 | 0.00 | 0.11 | 0.01 | 83 | 1011.1 |
| 20260510105614 | 48 | 263 | 0.0 | 0.0 | 0.00 | 0.11 | 0.01 | 83 | 1011.1 |
| 20260510105016 | 48 | 263 | 0.0 | 0.0 | 0.00 | 0.11 | 0.01 | 82 | 1010.9 |
| 20260510104544 | 48 | 263 | 0.0 | 0.0 | 0.00 | 0.11 | 0.01 | 82 | 1011.1 |
| 20260510104019 | 48 | 263 | 0.0 | 0.0 | 0.00 | 0.11 | 0.01 | 82 | 1011.0 |
| 20260510103546 | 48 | 267 | 0.0 | 3.0 | 0.00 | 0.11 | 0.01 | 82 | 1010.8 |
| 20260510103041 | 48 | 267 | 1.0 | 5.0 | 0.00 | 0.11 | 0.01 | 82 | 1010.8 |
| 20260510102531 | 48 | 276 | 2.0 | 5.0 | 0.00 | 0.11 | 0.01 | 83 | 1010.7 |
| 20260510102034 | 48 | 261 | 1.0 | 3.0 | 0.00 | 0.11 | 0.01 | 83 | 1010.8 |
| 20260510101604 | 48 | 313 | 0.0 | 0.0 | 0.00 | 0.11 | 0.01 | 82 | 1010.5 |
| 20260510101043 | 48 | 313 | 0.0 | 0.0 | 0.01 | 0.11 | 0.01 | 81 | 1010.5 |
| 20260510100515 | 48 | 313 | 0.0 | 0.0 | 0.01 | 0.11 | 0.01 | 81 | 1010.2 |
| 20260510100018 | 48 | 313 | 0.0 | 0.0 | 0.01 | 0.11 | 0.01 | 80 | 1009.9 |
| 20260510095516 | 48 | 315 | 0.0 | 0.0 | 0.01 | 0.11 | 0.01 | 79 | 1010.1 |
| 20260510095031 | 48 | 315 | 0.0 | 0.0 | 0.01 | 0.11 | 0.01 | 80 | 1010.1 |
| 20260510094557 | 49 | 315 | 0.0 | 0.0 | 0.01 | 0.11 | 0.01 | 79 | 1010.0 |
| 20260510094052 | 49 | 315 | 0.0 | 2.0 | 0.01 | 0.11 | 0.01 | 79 | 1009.9 |
| 20260510093522 | 49 | 315 | 0.0 | 5.0 | 0.01 | 0.11 | 0.01 | 79 | 1009.9 |
| 20260510093032 | 49 | 324 | 1.0 | 9.0 | 0.01 | 0.11 | 0.01 | 78 | 1009.8 |
| 20260510092521 | 50 | 308 | 3.0 | 9.0 | 0.01 | 0.11 | 0.01 | 78 | 1009.7 |
| 20260510092036 | 50 | 294 | 3.0 | 10.0 | 0.01 | 0.11 | 0.01 | 81 | 1009.7 |
| 20260510091523 | 51 | 344 | 4.0 | 10.0 | 0.01 | 0.11 | 0.01 | 83 | 1009.8 |
| 20260510091046 | 52 | 296 | 3.0 | 8.0 | 0.00 | 0.10 | 0.00 | 85 | 1009.8 |
| 20260510090543 | 52 | 314 | 3.0 | 6.0 | 0.00 | 0.10 | 0.00 | 86 | 1009.4 |
| 20260510090029 | 52 | 300 | 3.0 | 5.0 | 0.00 | 0.10 | 0.00 | 87 | 1009.2 |
| 20260510085516 | 52 | 269 | 2.0 | 5.0 | 0.00 | 0.10 | 0.00 | 87 | 1009.1 |
| 20260510085021 | 52 | 302 | 2.0 | 5.0 | 0.00 | 0.10 | 0.00 | 87 | 1009.0 |
| 20260510084550 | 52 | 294 | 0.0 | 3.0 | 0.00 | 0.10 | 0.00 | 87 | 1008.8 |
| 20260510084022 | 52 | 292 | 1.0 | 5.0 | 0.00 | 0.10 | 0.00 | 87 | 1008.9 |
| 20260510083516 | 52 | 297 | 1.0 | 5.0 | 0.00 | 0.10 | 0.00 | 88 | 1009.0 |
| 20260510083026 | 52 | 313 | 2.0 | 5.0 | 0.00 | 0.10 | 0.00 | 88 | 1008.9 |
| 20260510082521 | 52 | 273 | 1.0 | 3.0 | 0.00 | 0.10 | 0.00 | 88 | 1008.8 |
| 20260510082026 | 52 | 269 | 0.0 | 0.0 | 0.00 | 0.10 | 0.00 | 88 | 1008.7 |
| 20260510081521 | 53 | 269 | 0.0 | 3.0 | 0.00 | 0.10 | 0.00 | 88 | 1008.5 |
| 20260510081030 | 53 | 269 | 0.0 | 3.0 | 0.00 | 0.10 | 0.00 | 88 | 1008.4 |
| 20260510080532 | 53 | 269 | 0.0 | 0.0 | 0.00 | 0.10 | 0.00 | 89 | 1008.4 |
| 20260510080043 | 53 | 269 | 0.0 | 4.0 | 0.00 | 0.10 | 0.00 | 89 | 1008.4 |
| 20260510075528 | 53 | 269 | 0.0 | 4.0 | 0.00 | 0.10 | 0.00 | 89 | 1008.5 |
| 20260510075033 | 52 | 261 | 1.0 | 5.0 | 0.00 | 0.10 | 0.00 | 89 | 1008.4 |
| 20260510074535 | 52 | 310 | 1.0 | 7.0 | 0.00 | 0.10 | 0.00 | 89 | 1008.3 |
| 20260510074016 | 52 | 333 | 3.0 | 7.0 | 0.00 | 0.10 | 0.00 | 90 | 1008.3 |
| 20260510073539 | 52 | 257 | 2.0 | 4.0 | 0.00 | 0.10 | 0.00 | 90 | 1008.2 |
| 20260510073038 | 52 | 294 | 0.0 | 0.0 | 0.00 | 0.10 | 0.00 | 90 | 1008.4 |
| 20260510072520 | 52 | 294 | 0.0 | 1.0 | 0.00 | 0.10 | 0.00 | 89 | 1008.2 |
| 20260510072027 | 52 | 298 | 0.0 | 1.0 | 0.00 | 0.10 | 0.00 | 89 | 1008.1 |
| 20260510071518 | 52 | 298 | 0.0 | 2.0 | 0.00 | 0.10 | 0.00 | 89 | 1007.9 |
| 20260510071047 | 52 | 298 | 0.0 | 2.0 | 0.00 | 0.10 | 0.00 | 89 | 1007.8 |
| 20260510070521 | 52 | 298 | 0.0 | 2.0 | 0.00 | 0.10 | 0.00 | 89 | 1007.8 |
| 20260510070014 | 52 | 297 | 0.0 | 2.0 | 0.00 | 0.10 | 0.00 | 89 | 1007.9 |
| 20260510065521 | 52 | 328 | 0.0 | 7.0 | 0.00 | 0.10 | 0.00 | 89 | 1007.6 |
| 20260510065034 | 52 | 335 | 2.0 | 7.0 | 0.00 | 0.10 | 0.00 | 89 | 1007.6 |
| 20260510064536 | 52 | 329 | 0.0 | 0.0 | 0.00 | 0.10 | 0.00 | 89 | 1007.6 |
| 20260510064033 | 52 | 196 | 0.0 | 0.0 | 0.00 | 0.10 | 0.00 | 89 | 1007.5 |
| 20260510063544 | 52 | 196 | 0.0 | 0.0 | 0.00 | 0.10 | 0.00 | 89 | 1007.4 |
| 20260510063042 | 51 | 196 | 0.0 | 0.0 | 0.00 | 0.10 | 0.00 | 89 | 1007.5 |
| 20260510062530 | 51 | 196 | 0.0 | 0.0 | 0.00 | 0.10 | 0.00 | 89 | 1007.5 |
| 20260510062015 | 51 | 196 | 0.0 | 0.0 | 0.00 | 0.10 | 0.00 | 89 | 1007.3 |
| 20260510061539 | 51 | 196 | 0.0 | 0.0 | 0.00 | 0.10 | 0.00 | 89 | 1007.4 |
| 20260510061017 | 51 | 196 | 0.0 | 0.0 | 0.00 | 0.10 | 0.00 | 89 | 1007.3 |
| 20260510060538 | 51 | 196 | 0.0 | 0.0 | 0.00 | 0.10 | 0.00 | 89 | 1007.2 |
| 20260510060038 | 51 | 196 | 0.0 | 0.0 | 0.00 | 0.10 | 0.00 | 89 | 1007.1 |
| 20260510055526 | 51 | 196 | 0.0 | 0.0 | 0.00 | 0.10 | 0.00 | 89 | 1007.2 |
| 20260510055052 | 51 | 196 | 0.0 | 0.0 | 0.00 | 0.10 | 0.00 | 89 | 1007.1 |
| 20260510054528 | 51 | 196 | 0.0 | 0.0 | 0.00 | 0.10 | 0.00 | 89 | 1007.0 |
| 20260510054054 | 51 | 196 | 0.0 | 0.0 | 0.00 | 0.10 | 0.00 | 89 | 1007.2 |
| 20260510053524 | 51 | 196 | 0.0 | 0.0 | 0.00 | 0.10 | 0.00 | 89 | 1007.1 |
| 20260510053030 | 51 | 196 | 0.0 | 0.0 | 0.00 | 0.10 | 0.00 | 89 | 1007.1 |
| 20260510052512 | 51 | 196 | 0.0 | 0.0 | 0.00 | 0.10 | 0.00 | 89 | 1007.0 |
| 20260510052012 | 51 | 196 | 0.0 | 0.0 | 0.00 | 0.10 | 0.00 | 89 | 1006.9 |
| 20260510051549 | 51 | 196 | 0.0 | 2.0 | 0.00 | 0.10 | 0.00 | 89 | 1007.1 |
| 20260510051015 | 51 | 196 | 0.0 | 3.0 | 0.00 | 0.10 | 0.00 | 90 | 1007.1 |
| 20260510050538 | 51 | 196 | 2.0 | 3.0 | 0.00 | 0.10 | 0.00 | 90 | 1007.1 |
| 20260510050040 | 51 | 196 | 2.0 | 3.0 | 0.00 | 0.10 | 0.00 | 90 | 1007.1 |
| 20260510045531 | 51 | 196 | 0.0 | 0.0 | 0.00 | 0.10 | 0.00 | 89 | 1007.1 |
| 20260510045020 | 51 | 196 | 0.0 | 0.0 | 0.00 | 0.10 | 0.00 | 89 | 1007.1 |
| 20260510044540 | 51 | 196 | 0.0 | 0.0 | 0.00 | 0.10 | 0.00 | 89 | 1006.9 |
| 20260510044033 | 51 | 196 | 0.0 | 0.0 | 0.00 | 0.10 | 0.00 | 88 | 1006.9 |
| 20260510043537 | 51 | 196 | 0.0 | 0.0 | 0.00 | 0.10 | 0.00 | 88 | 1006.9 |
| 20260510043108 | 51 | 196 | 0.0 | 0.0 | 0.00 | 0.10 | 0.00 | 88 | 1006.9 |
| 20260510042522 | 51 | 196 | 0.0 | 0.0 | 0.00 | 0.10 | 0.00 | 88 | 1006.8 |
| 20260510042035 | 51 | 196 | 0.0 | 0.0 | 0.00 | 0.10 | 0.00 | 88 | 1006.8 |
| 20260510041516 | 51 | 196 | 0.0 | 0.0 | 0.00 | 0.10 | 0.00 | 88 | 1007.0 |
| 20260510041040 | 52 | 196 | 0.0 | 0.0 | 0.00 | 0.10 | 0.00 | 87 | 1006.9 |
| 20260510040525 | 52 | 196 | 0.0 | 0.0 | 0.00 | 0.10 | 0.00 | 87 | 1006.7 |
| 20260510040018 | 52 | 196 | 0.0 | 0.0 | 0.00 | 0.10 | 0.10 | 86 | 1006.6 |
| 20260510035541 | 52 | 196 | 0.0 | 0.0 | 0.00 | 0.10 | 0.10 | 86 | 1006.7 |
| 20260510035016 | 53 | 196 | 0.0 | 0.0 | 0.00 | 0.10 | 0.10 | 87 | 1006.6 |
| 20260510034515 | 53 | 196 | 0.0 | 0.0 | 0.00 | 0.10 | 0.10 | 87 | 1006.3 |
| 20260510034023 | 53 | 196 | 0.0 | 0.0 | 0.00 | 0.10 | 0.10 | 87 | 1006.2 |
| 20260510033517 | 53 | 196 | 0.0 | 0.0 | 0.00 | 0.10 | 0.10 | 86 | 1006.0 |
| 20260510033031 | 53 | 196 | 0.0 | 0.0 | 0.00 | 0.10 | 0.10 | 86 | 1006.0 |
| 20260510032525 | 53 | 196 | 0.0 | 2.0 | 0.00 | 0.10 | 0.10 | 87 | 1006.0 |
| 20260510032027 | 53 | 196 | 0.0 | 4.0 | 0.00 | 0.10 | 0.10 | 87 | 1006.1 |
| 20260510031534 | 53 | 196 | 3.0 | 4.0 | 0.00 | 0.10 | 0.10 | 87 | 1006.1 |
| 20260510031050 | 53 | 196 | 0.0 | 4.0 | 0.00 | 0.10 | 0.10 | 87 | 1006.0 |
| 20260510030516 | 54 | 196 | 2.0 | 5.0 | 0.00 | 0.10 | 0.10 | 87 | 1006.0 |
| 20260510030034 | 54 | 196 | 3.0 | 5.0 | 0.00 | 0.10 | 0.10 | 87 | 1005.9 |
| 20260510025519 | 54 | 193 | 3.0 | 5.0 | 0.00 | 0.10 | 0.10 | 87 | 1005.9 |
| 20260510025030 | 54 | 196 | 3.0 | 5.0 | 0.00 | 0.10 | 0.10 | 87 | 1005.9 |
| 20260510024541 | 54 | 196 | 2.0 | 4.0 | 0.00 | 0.10 | 0.10 | 87 | 1005.9 |
| 20260510024044 | 54 | 195 | 3.0 | 6.0 | 0.00 | 0.10 | 0.10 | 88 | 1005.8 |
| 20260510023520 | 54 | 198 | 3.0 | 7.0 | 0.01 | 0.10 | 0.10 | 88 | 1005.7 |
| 20260510023050 | 54 | 195 | 3.0 | 7.0 | 0.02 | 0.10 | 0.10 | 88 | 1005.6 |
| 20260510022557 | 54 | 192 | 2.0 | 4.0 | 0.02 | 0.10 | 0.10 | 88 | 1005.7 |
| 20260510022034 | 54 | 190 | 1.0 | 5.0 | 0.03 | 0.10 | 0.10 | 88 | 1005.7 |
| 20260510021540 | 54 | 194 | 3.0 | 7.0 | 0.05 | 0.10 | 0.10 | 88 | 1005.5 |
| 20260510021018 | 54 | 184 | 3.0 | 7.0 | 0.06 | 0.10 | 0.10 | 88 | 1005.6 |
| 20260510020528 | 54 | 188 | 4.0 | 9.0 | 0.06 | 0.10 | 0.10 | 88 | 1005.6 |
| 20260510020025 | 54 | 198 | 4.0 | 8.0 | 0.08 | 0.10 | 0.10 | 88 | 1005.8 |
| 20260510015543 | 54 | 205 | 5.0 | 8.0 | 0.09 | 0.10 | 0.10 | 88 | 1005.8 |
| 20260510015031 | 54 | 187 | 2.0 | 8.0 | 0.10 | 0.10 | 0.10 | 88 | 1006.0 |
| 20260510014519 | 54 | 201 | 5.0 | 8.0 | 0.10 | 0.10 | 0.10 | 87 | 1005.9 |
| 20260510014038 | 54 | 192 | 3.0 | 5.0 | 0.10 | 0.10 | 0.10 | 87 | 1006.0 |
| 20260510013529 | 54 | 186 | 1.0 | 6.0 | 0.09 | 0.09 | 0.09 | 87 | 1006.0 |
| 20260510013038 | 54 | 186 | 2.0 | 6.0 | 0.08 | 0.08 | 0.08 | 86 | 1006.0 |
| 20260510012526 | 54 | 234 | 3.0 | 7.0 | 0.07 | 0.07 | 0.07 | 86 | 1006.1 |
| 20260510012016 | 55 | 238 | 3.0 | 8.0 | 0.06 | 0.06 | 0.06 | 85 | 1006.2 |
| 20260510011531 | 55 | 188 | 4.0 | 10.0 | 0.05 | 0.05 | 0.05 | 84 | 1006.3 |
| 20260510011039 | 56 | 257 | 4.0 | 10.0 | 0.04 | 0.04 | 0.04 | 84 | 1006.2 |
| 20260510010539 | 56 | 248 | 3.0 | 13.0 | 0.04 | 0.04 | 0.04 | 82 | 1006.2 |
| 20260510010050 | 57 | 252 | 6.0 | 17.0 | 0.02 | 0.02 | 0.02 | 80 | 1006.2 |
| 20260510005553 | 59 | 261 | 5.0 | 17.0 | 0.01 | 0.01 | 0.01 | 76 | 1006.1 |
| 20260510005053 | 61 | 247 | 7.0 | 17.0 | 0.00 | 0.00 | 0.00 | 71 | 1005.8 |
| 20260510004524 | 62 | 315 | 8.0 | 15.0 | 0.00 | 0.00 | 0.00 | 66 | 1004.5 |
| 20260510004031 | 63 | 144 | 0.0 | 4.0 | 0.00 | 0.00 | 0.00 | 63 | 1003.8 |
| 20260510003536 | 63 | 144 | 2.0 | 4.0 | 0.00 | 0.00 | 0.00 | 63 | 1003.6 |
| 20260510003017 | 63 | 167 | 0.0 | 2.0 | 0.00 | 0.00 | 0.00 | 63 | 1003.7 |
| 20260510002541 | 63 | 167 | 0.0 | 2.0 | 0.00 | 0.00 | 0.00 | 62 | 1003.8 |
| 20260510002105 | 64 | 167 | 0.0 | 0.0 | 0.00 | 0.00 | 0.00 | 61 | 1003.7 |
| 20260510001517 | 64 | 168 | 0.0 | 0.0 | 0.00 | 0.00 | 0.00 | 62 | 1003.7 |
| 20260510001046 | 64 | 168 | 0.0 | 0.0 | 0.00 | 0.00 | 0.00 | 61 | 1003.8 |
| 20260510000516 | 64 | 168 | 0.0 | 0.0 | 0.00 | 0.00 | 0.00 | 61 | 1003.7 |
| 20260510000016 | 64 | 168 | 0.0 | 0.0 | 0.00 | 0.00 | 0.00 | 60 | 1003.5 |
| 20260509235525 | 64 | 168 | 0.0 | 0.0 | 0.00 | 0.00 | 0.00 | 60 | 1003.4 |
| 20260509235040 | 65 | 168 | 0.0 | 2.0 | 0.00 | 0.00 | 0.00 | 60 | 1003.4 |
| 20260509234517 | 65 | 168 | 0.0 | 4.0 | 0.00 | 0.00 | 0.00 | 59 | 1003.4 |
| 20260509234042 | 65 | 168 | 2.0 | 4.0 | 0.00 | 0.00 | 0.00 | 59 | 1003.4 |
| 20260509233557 | 65 | 165 | 0.0 | 3.0 | 0.00 | 0.00 | 0.00 | 59 | 1003.4 |
| 20260509233025 | 65 | 165 | 0.0 | 4.0 | 0.00 | 0.00 | 0.00 | 58 | 1003.3 |
| 20260509232536 | 65 | 165 | 2.0 | 4.0 | 0.00 | 0.00 | 0.00 | 58 | 1003.2 |
| 20260509232030 | 65 | 199 | 3.0 | 4.0 | 0.00 | 0.00 | 0.00 | 57 | 1003.2 |
| 20260509231536 | 65 | 199 | 2.0 | 5.0 | 0.00 | 0.00 | 0.00 | 58 | 1003.2 |
| 20260509231019 | 65 | 199 | 3.0 | 5.0 | 0.00 | 0.00 | 0.00 | 57 | 1003.4 |
| 20260509230531 | 66 | 211 | 3.0 | 5.0 | 0.00 | 0.00 | 0.00 | 57 | 1003.4 |
| 20260509230027 | 66 | 187 | 2.0 | 4.0 | 0.00 | 0.00 | 0.00 | 57 | 1003.4 |
| 20260509225535 | 66 | 196 | 3.0 | 7.0 | 0.00 | 0.00 | 0.00 | 57 | 1003.5 |
| 20260509225058 | 66 | 198 | 4.0 | 7.0 | 0.00 | 0.00 | 0.00 | 56 | 1003.5 |
| 20260509224606 | 66 | 186 | 1.0 | 4.0 | 0.00 | 0.00 | 0.00 | 57 | 1003.5 |
| 20260509224044 | 66 | 186 | 2.0 | 6.0 | 0.00 | 0.00 | 0.00 | 56 | 1003.6 |
| 20260509223533 | 66 | 193 | 3.0 | 5.0 | 0.00 | 0.00 | 0.00 | 56 | 1003.5 |
| 20260509223059 | 66 | 189 | 3.0 | 5.0 | 0.00 | 0.00 | 0.00 | 57 | 1003.5 |
| 20260509222526 | 66 | 178 | 3.0 | 6.0 | 0.00 | 0.00 | 0.00 | 57 | 1003.5 |
| 20260509222017 | 67 | 209 | 4.0 | 9.0 | 0.00 | 0.00 | 0.00 | 56 | 1003.5 |
| 20260509221547 | 67 | 202 | 5.0 | 9.0 | 0.00 | 0.00 | 0.00 | 54 | 1003.4 |
| 20260509221031 | 67 | 189 | 5.0 | 8.0 | 0.00 | 0.00 | 0.00 | 55 | 1003.3 |
| 20260509220527 | 68 | 194 | 3.0 | 7.0 | 0.00 | 0.00 | 0.00 | 56 | 1003.3 |
| 20260509220054 | 67 | 205 | 3.0 | 8.0 | 0.00 | 0.00 | 0.00 | 55 | 1003.3 |
| 20260509215547 | 68 | 193 | 4.0 | 8.0 | 0.00 | 0.00 | 0.00 | 54 | 1003.4 |
| 20260509215018 | 68 | 218 | 3.0 | 10.0 | 0.00 | 0.00 | 0.00 | 57 | 1003.4 |
| 20260509214518 | 68 | 190 | 4.0 | 7.0 | 0.00 | 0.00 | 0.00 | 56 | 1003.4 |
| 20260509214045 | 68 | 188 | 4.0 | 9.0 | 0.00 | 0.00 | 0.00 | 57 | 1003.5 |
| 20260509213530 | 68 | 195 | 5.0 | 10.0 | 0.00 | 0.00 | 0.00 | 54 | 1003.5 |
| 20260509213020 | 68 | 184 | 4.0 | 10.0 | 0.00 | 0.00 | 0.00 | 56 | 1003.4 |
| 20260509212528 | 68 | 199 | 6.0 | 8.0 | 0.00 | 0.00 | 0.00 | 55 | 1003.4 |
| 20260509212022 | 68 | 187 | 2.0 | 7.0 | 0.00 | 0.00 | 0.00 | 57 | 1003.3 |
| 20260509211532 | 68 | 200 | 4.0 | 7.0 | 0.00 | 0.00 | 0.00 | 56 | 1003.2 |
| 20260509211035 | 67 | 178 | 2.0 | 7.0 | 0.00 | 0.00 | 0.00 | 60 | 1003.3 |
| 20260509210524 | 67 | 188 | 3.0 | 9.0 | 0.00 | 0.00 | 0.00 | 59 | 1003.4 |
| 20260509210019 | 67 | 180 | 4.0 | 9.0 | 0.00 | 0.00 | 0.00 | 60 | 1003.4 |
| 20260509205550 | 67 | 172 | 5.0 | 8.0 | 0.00 | 0.00 | 0.00 | 59 | 1003.5 |
| 20260509205037 | 66 | 188 | 4.0 | 7.0 | 0.00 | 0.00 | 0.00 | 54 | 1003.6 |
| 20260509204530 | 67 | 192 | 4.0 | 11.0 | 0.00 | 0.00 | 0.00 | 53 | 1003.5 |
| 20260509204043 | 67 | 202 | 6.0 | 11.0 | 0.00 | 0.00 | 0.00 | 53 | 1003.6 |
| 20260509203518 | 67 | 165 | 4.0 | 7.0 | 0.00 | 0.00 | 0.00 | 52 | 1003.6 |
| 20260509203049 | 68 | 186 | 3.0 | 9.0 | 0.00 | 0.00 | 0.00 | 54 | 1003.6 |
| 20260509202520 | 68 | 160 | 6.0 | 9.0 | 0.00 | 0.00 | 0.00 | 52 | 1003.6 |
| 20260509202023 | 68 | 202 | 5.0 | 8.0 | 0.00 | 0.00 | 0.00 | 53 | 1003.7 |
| 20260509201528 | 68 | 194 | 4.0 | 7.0 | 0.00 | 0.00 | 0.00 | 53 | 1003.9 |
| 20260509201022 | 68 | 196 | 4.0 | 7.0 | 0.00 | 0.00 | 0.00 | 54 | 1003.9 |
| 20260509200542 | 68 | 191 | 4.0 | 7.0 | 0.00 | 0.00 | 0.00 | 52 | 1003.9 |
| 20260509200019 | 68 | 172 | 3.0 | 7.0 | 0.00 | 0.00 | 0.00 | 55 | 1003.9 |
| 20260509195522 | 68 | 181 | 4.0 | 7.0 | 0.00 | 0.00 | 0.00 | 58 | 1003.9 |
| 20260509195018 | 67 | 182 | 3.0 | 7.0 | 0.00 | 0.00 | 0.00 | 57 | 1003.9 |
| 20260509194535 | 67 | 195 | 2.0 | 7.0 | 0.00 | 0.00 | 0.00 | 56 | 1003.8 |
| 20260509194019 | 68 | 214 | 4.0 | 8.0 | 0.00 | 0.00 | 0.00 | 55 | 1004.1 |
| 20260509193514 | 68 | 198 | 5.0 | 10.0 | 0.00 | 0.00 | 0.00 | 54 | 1004.1 |
| 20260509193034 | 67 | 195 | 3.0 | 10.0 | 0.00 | 0.00 | 0.00 | 55 | 1004.0 |
| 20260509192546 | 67 | 234 | 3.0 | 8.0 | 0.00 | 0.00 | 0.00 | 55 | 1004.1 |
| 20260509192044 | 66 | 198 | 3.0 | 8.0 | 0.00 | 0.00 | 0.00 | 55 | 1004.3 |
| 20260509191520 | 66 | 178 | 4.0 | 10.0 | 0.00 | 0.00 | 0.00 | 56 | 1004.4 |
| 20260509191017 | 66 | 234 | 5.0 | 10.0 | 0.00 | 0.00 | 0.00 | 57 | 1004.4 |
| 20260509190518 | 65 | 182 | 4.0 | 8.0 | 0.00 | 0.00 | 0.00 | 58 | 1004.5 |
| 20260509190013 | 66 | 195 | 5.0 | 8.0 | 0.00 | 0.00 | 0.00 | 58 | 1004.5 |
| 20260509185523 | 66 | 200 | 3.0 | 7.0 | 0.00 | 0.00 | 0.00 | 62 | 1004.5 |
| 20260509185017 | 66 | 161 | 3.0 | 8.0 | 0.00 | 0.00 | 0.00 | 60 | 1004.7 |
| 20260509184527 | 66 | 192 | 5.0 | 8.0 | 0.00 | 0.00 | 0.00 | 61 | 1004.9 |
| 20260509184039 | 66 | 196 | 4.0 | 7.0 | 0.00 | 0.00 | 0.00 | 61 | 1004.9 |
| 20260509183555 | 66 | 198 | 3.0 | 7.0 | 0.00 | 0.00 | 0.00 | 65 | 1005.0 |
| 20260509183042 | 65 | 145 | 4.0 | 9.0 | 0.00 | 0.00 | 0.00 | 65 | 1005.1 |
| 20260509182523 | 65 | 205 | 3.0 | 8.0 | 0.00 | 0.00 | 0.00 | 64 | 1005.2 |
| 20260509182017 | 66 | 193 | 6.0 | 8.0 | 0.00 | 0.00 | 0.00 | 62 | 1005.3 |
| 20260509181524 | 65 | 207 | 4.0 | 8.0 | 0.00 | 0.00 | 0.00 | 65 | 1005.2 |
| 20260509181019 | 65 | 188 | 5.0 | 8.0 | 0.00 | 0.00 | 0.00 | 65 | 1005.2 |
| 20260509180553 | 65 | 192 | 2.0 | 7.0 | 0.00 | 0.00 | 0.00 | 64 | 1005.3 |
| 20260509180045 | 65 | 169 | 3.0 | 7.0 | 0.00 | 0.00 | 0.00 | 66 | 1005.4 |
| 20260509175517 | 65 | 190 | 5.0 | 7.0 | 0.00 | 0.00 | 0.00 | 65 | 1005.4 |
| 20260509175039 | 65 | 185 | 4.0 | 7.0 | 0.00 | 0.00 | 0.00 | 65 | 1005.4 |
| 20260509174517 | 65 | 197 | 4.0 | 11.0 | 0.00 | 0.00 | 0.00 | 67 | 1005.3 |